EW2811 Weather Reports


time (UTC)temp
F
wind
direction
speed
knots
gust
knots
rain 1hr
in
rain 24hr
in
rain mn
in
humidity
%
barometer
mb
20260503011038 62 250 0.0 0.0 0.00 0.00 0.00 45 1010.0
20260503011034 62 154 0.0 0.9 0.00 0.00 0.00 43 1010.0
20260503005036 63 290 0.0 0.0 0.00 0.00 0.00 41 1010.2
20260503005032 63 230 0.0 0.0 0.00 0.00 0.00 44 1010.1
20260503004032 63 246 0.0 0.0 0.00 0.00 0.00 42 1010.1
20260503002028 63 189 0.0 0.0 0.00 0.00 0.00 41 1010.3
20260503001033 64 275 0.0 0.0 0.00 0.00 0.00 37 1010.5
20260503001029 63 334 0.0 0.0 0.00 0.00 0.00 40 1010.3
20260503000028 63 209 0.0 0.0 0.00 0.00 0.00 41 1010.5
20260502234031 64 294 0.0 0.0 0.00 0.00 0.00 37 1010.8
20260502234027 64 275 0.0 0.0 0.00 0.00 0.00 39 1010.6
20260502233027 64 275 0.0 0.0 0.00 0.00 0.00 38 1010.6
20260502232031 64 284 0.0 0.0 0.00 0.00 0.00 39 1011.0
20260502231025 64 229 0.0 0.0 0.00 0.00 0.00 37 1010.9
20260502225031 64 285 0.0 0.0 0.00 0.00 0.00 37 1011.2
20260502225026 64 284 0.0 0.0 0.00 0.00 0.00 36 1011.1
20260502223036 64 229 0.0 0.0 0.00 0.00 0.00 39 1011.3
20260502223032 64 277 0.0 0.0 0.00 0.00 0.00 35 1011.3
20260502221024 65 292 0.0 0.0 0.00 0.00 0.00 36 1011.3
20260502220024 65 163 0.0 0.0 0.00 0.00 0.00 36 1011.4
20260502215024 64 247 0.0 0.0 0.00 0.00 0.00 36 1011.5
20260502214024 64 254 0.0 0.0 0.00 0.00 0.00 35 1011.7
20260502213025 65 272 0.0 0.0 0.00 0.00 0.00 34 1012.0
20260502212024 64 155 0.0 0.0 0.00 0.00 0.00 34 1012.1
20260502211022 65 166 0.0 0.0 0.00 0.00 0.00 37 1012.4
20260502210027 65 115 0.0 0.9 0.00 0.00 0.00 35 1012.8
20260502210021 65 259 0.0 5.2 0.00 0.00 0.00 34 1012.4
20260502204020 64 158 0.0 0.0 0.00 0.00 0.00 35 1013.0
20260502203022 64 171 0.0 0.0 0.00 0.00 0.00 35 1013.5
20260502203017 64 170 0.0 0.0 0.00 0.00 0.00 35 1013.1
20260502201022 63 267 0.0 0.0 0.00 0.00 0.00 35 1013.8
20260502201018 64 166 0.0 0.0 0.00 0.00 0.00 35 1013.6
20260502200019 63 205 0.0 1.7 0.00 0.00 0.00 34 1013.9
20260502194018 62 160 0.0 1.7 0.00 0.00 0.00 35 1014.1
20260502194013 62 157 0.0 0.0 0.00 0.00 0.00 38 1014.6
20260502193117 62 182 0.0 0.9 0.00 0.00 0.00 34 1014.3
20260502192120 61 156 0.0 1.7 0.00 0.00 0.00 36 1015.0
20260502191114 61 275 0.0 0.0 0.00 0.00 0.00 34 1014.7
20260502190118 60 190 0.0 0.9 0.00 0.00 0.00 36 1015.2
20260502184015 60 294 0.0 0.9 0.00 0.00 0.00 37 1015.7
20260502184009 60 247 0.0 1.7 0.00 0.00 0.00 39 1015.3
20260502183015 60 167 0.0 0.9 0.00 0.00 0.00 36 1015.7
20260502183010 60 180 0.0 0.0 0.00 0.00 0.00 36 1015.4
20260502164009 57 293 0.0 5.2 0.00 0.00 0.00 37 1017.1
20260502163007 57 215 0.0 0.9 0.00 0.00 0.00 41 1017.2
20260502162017 55 250 0.0 0.0 0.00 0.00 0.00 41 1017.7
20260502162008 56 175 0.0 0.0 0.00 0.00 0.00 39 1017.4
20260502161008 56 302 0.0 0.0 0.00 0.00 0.00 41 1017.5
20260502151003 53 286 0.0 0.0 0.00 0.00 0.00 45 1018.0
20260502122956 40 263 0.0 0.0 0.00 0.00 0.00 71 1018.5
20260502121957 40 271 0.0 0.0 0.00 0.00 0.00 73 1018.4
20260502120957 39 267 0.0 0.9 0.00 0.00 0.00 75 1018.5
20260502114956 37 290 0.0 0.0 0.00 0.00 0.00 81 1018.5
20260502112956 36 290 0.0 0.0 0.00 0.00 0.00 82 1018.3
20260502112952 36 290 0.0 0.0 0.00 0.00 0.00 83 1018.3
20260502110956 35 290 0.0 0.0 0.00 0.00 0.00 83 1018.3
20260502110951 36 290 0.0 0.0 0.00 0.00 0.00 82 1018.3
20260502105950 35 290 0.0 0.0 0.00 0.00 0.00 83 1018.3
20260502103954 35 290 0.0 0.0 0.00 0.00 0.00 82 1018.3
20260502103950 35 290 0.0 0.0 0.00 0.00 0.00 82 1018.3
20260502102102 36 290 0.0 0.0 0.00 0.00 0.00 80 1018.3
20260502101954 35 290 0.0 0.0 0.00 0.00 0.00 81 1018.3
20260502101950 35 290 0.0 0.0 0.00 0.00 0.00 82 1018.3
20260502090950 37 290 0.0 0.0 0.00 0.00 0.00 77 1018.1
20260502070944 38 290 0.0 0.0 0.00 0.00 0.00 74 1018.3
20260502065946 38 290 0.0 0.0 0.00 0.00 0.00 75 1018.3
20260502064943 38 290 0.0 0.0 0.00 0.00 0.00 74 1018.4
20260502063942 38 290 0.0 0.0 0.00 0.00 0.00 74 1018.4
20260502062942 38 290 0.0 0.0 0.00 0.00 0.00 74 1018.4
20260502062054 38 290 0.0 0.0 0.00 0.00 0.00 74 1018.5
20260502061942 38 290 0.0 0.0 0.00 0.00 0.00 74 1018.4
20260502060948 38 290 0.0 0.0 0.00 0.00 0.00 74 1018.5
20260502060942 38 290 0.0 0.0 0.00 0.00 0.00 75 1018.5
20260502053939 39 290 0.0 0.0 0.00 0.00 0.00 74 1018.5
20260502052940 39 290 0.0 0.0 0.00 0.00 0.00 73 1018.5
20260502051940 39 290 0.0 0.0 0.00 0.00 0.00 73 1018.5
20260502050940 40 290 0.0 0.0 0.00 0.00 0.00 72 1018.5
20260502045940 40 290 0.0 0.0 0.00 0.00 0.00 73 1018.5
20260502044941 40 290 0.0 0.0 0.00 0.00 0.00 72 1018.5
20260502044937 40 290 0.0 0.0 0.00 0.00 0.00 73 1018.5
20260502042937 41 290 0.0 0.0 0.00 0.00 0.00 72 1018.5
20260502041937 41 290 0.0 0.0 0.00 0.00 0.00 71 1018.4
20260502040934 42 290 0.0 0.0 0.00 0.00 0.00 71 1018.5
20260502035935 42 290 0.0 0.0 0.00 0.00 0.00 70 1018.5
20260502034935 42 290 0.0 0.0 0.00 0.00 0.00 69 1018.5
20260502033935 42 290 0.0 0.0 0.00 0.00 0.00 68 1018.5
20260502032935 43 290 0.0 0.0 0.00 0.00 0.00 66 1018.6
20260502031933 43 290 0.0 0.0 0.00 0.00 0.00 64 1018.6
20260502030933 43 290 0.0 0.0 0.00 0.00 0.00 63 1018.5
20260502025933 44 290 0.0 0.0 0.00 0.00 0.00 63 1018.5
20260502024932 44 290 0.0 0.0 0.00 0.00 0.00 59 1018.5
20260502023931 45 290 0.0 0.0 0.00 0.00 0.00 56 1018.5
20260502022931 45 290 0.0 0.0 0.00 0.00 0.00 55 1018.5
20260502021931 46 290 0.0 0.0 0.00 0.00 0.00 53 1018.4
20260502020930 46 290 0.0 0.0 0.00 0.00 0.00 51 1018.4
20260502015930 47 290 0.0 0.0 0.00 0.00 0.00 52 1018.3
20260502014931 47 290 0.0 0.0 0.00 0.00 0.00 49 1018.1